FW7568 Weather Reports


Display with metric or nautical units.
time (UTC)temp
F
wind
direction
speed
MPH
gust
MPH
rain 1hr
in
rain 24hr
in
rain mn
in
humidity
%
barometer
mb
20260507134714 63 225 24.0 34.0 0.00 0.04 0.04 67 1007.3
20260507134204 64 225 24.0 36.0 0.00 0.04 0.04 69 1007.9
20260507133144 64 225 21.0 30.0 0.00 0.04 0.04 71 1007.9
20260507132634 65 225 21.0 36.0 0.00 0.04 0.04 68 1007.2
20260507132123 65 203 28.0 36.0 0.00 0.04 0.04 71 1006.4
20260507131105 65 203 15.0 25.0 0.00 0.04 0.04 84 1006.1
20260507130554 65 203 17.0 27.0 0.00 0.04 0.04 83 1006.4
20260507130048 65 225 18.0 27.0 0.00 0.04 0.04 84 1006.2
20260507125023 65 225 15.0 22.0 0.00 0.04 0.04 88 1006.0
20260507124513 65 225 16.0 22.0 0.00 0.04 0.04 89 1006.3
20260507123453 65 180 15.0 22.0 0.00 0.04 0.04 89 1006.1
20260507122942 65 225 15.0 22.0 0.00 0.04 0.04 88 1005.9
20260507122432 65 225 17.0 27.0 0.00 0.04 0.04 88 1005.5
20260507121922 65 203 17.0 27.0 0.00 0.04 0.04 88 1005.4
20260507121412 65 203 16.0 24.0 0.00 0.04 0.04 88 1005.4
20260507120903 65 203 15.0 25.0 0.00 0.04 0.04 88 1005.6
20260507120353 65 203 15.0 30.0 0.00 0.04 0.04 88 1005.9
20260507115842 65 203 16.0 30.0 0.00 0.04 0.04 89 1005.8
20260507115332 65 203 15.0 29.0 0.00 0.04 0.04 89 1005.6
20260507114821 65 180 19.0 29.0 0.00 0.04 0.04 89 1005.3
20260507114311 66 180 16.0 25.0 0.00 0.04 0.04 89 1005.3
20260507113801 65 203 17.0 27.0 0.00 0.04 0.04 89 1005.1
20260507113251 65 225 18.0 29.0 0.00 0.04 0.04 89 1005.0
20260507112742 65 203 18.0 29.0 0.00 0.04 0.04 89 1004.7
20260507112231 65 203 17.0 29.0 0.00 0.04 0.04 90 1004.6
20260507110701 65 203 17.0 25.0 0.00 0.04 0.04 91 1003.6
20260507110152 65 203 17.0 25.0 0.00 0.04 0.04 90 1003.5
20260507105641 65 203 17.0 25.0 0.00 0.04 0.04 90 1003.6
20260507105136 66 203 19.0 25.0 0.00 0.04 0.04 90 1003.5
20260507104622 66 203 19.0 30.0 0.00 0.04 0.04 90 1003.3
20260507103601 66 203 17.0 27.0 0.00 0.04 0.04 90 1003.2
20260507103050 66 203 17.0 27.0 0.00 0.04 0.04 90 1003.2
20260507102540 66 225 17.0 27.0 0.00 0.04 0.04 91 1003.2
20260507102031 66 225 15.0 29.0 0.00 0.04 0.04 91 1003.2
20260507101010 67 203 14.0 25.0 0.00 0.04 0.04 93 1003.1
20260507100500 67 203 17.0 25.0 0.00 0.04 0.04 92 1002.8
20260507095439 66 203 16.0 23.0 0.00 0.04 0.04 93 1002.2
20260507094415 66 225 14.0 18.0 0.01 0.04 0.04 94 1002.5
20260507093358 66 225 11.0 21.0 0.04 0.04 0.04 94 1002.4
20260507092848 66 203 13.0 21.0 0.04 0.04 0.04 94 1002.1
20260507092338 66 225 9.0 17.0 0.04 0.04 0.04 94 1002.0
20260507091828 67 225 11.0 17.0 0.04 0.04 0.04 94 1001.9
20260507090809 67 203 11.0 17.0 0.04 0.04 0.04 94 1001.6
20260507090258 67 203 12.0 18.0 0.04 0.04 0.04 94 1001.8
20260507085748 67 225 11.0 21.0 0.04 0.04 0.04 95 1002.2
20260507085238 67 203 11.0 30.0 0.04 0.04 0.04 94 1002.2
20260507084728 68 225 16.0 30.0 0.04 0.04 0.04 92 1002.4
20260507083157 72 225 15.0 25.0 0.00 0.00 0.00 94 1001.8
20260507082647 72 248 15.0 20.0 0.00 0.00 0.00 97 1001.4
20260507082137 72 248 8.0 11.0 0.00 0.00 0.00 98 1001.2
20260507081627 72 270 0.0 0.0 0.00 0.00 0.00 98 1000.8
20260507081117 72 270 0.0 0.0 0.00 0.00 0.00 98 1000.9
20260507080607 72 248 0.0 0.0 0.00 0.00 0.00 97 1001.0
20260507075547 72 158 0.0 0.0 0.00 0.00 0.00 97 1001.0
20260507075037 72 90 0.0 0.0 0.00 0.00 0.00 97 1001.2
20260507074526 72 90 0.0 0.0 0.00 0.00 0.00 97 1001.8
20260507074016 72 90 0.0 0.0 0.00 0.00 0.00 96 1001.4
20260507073506 72 90 0.0 0.0 0.00 0.00 0.00 96 1001.4
20260507071936 72 90 0.0 0.0 0.00 0.00 0.00 96 1002.1
20260507071426 73 113 0.0 2.0 0.00 0.00 0.00 96 1002.3
20260507070916 73 113 0.0 2.0 0.00 0.00 0.00 96 1002.3
20260507070405 73 248 3.0 0.0 0.00 0.00 0.00 95 1002.3
20260507070156 73 248 3.0 0.0 0.00 0.00 0.00 95 1002.3
20260507065538 73 248 2.0 2.0 0.00 0.00 0.00 95 1002.4
20260507065027 73 338 0.0 2.0 0.00 0.00 0.00 94 1002.5
20260507064517 74 338 2.0 2.0 0.00 0.00 0.00 94 1002.4
20260507064007 74 338 1.0 4.0 0.00 0.00 0.00 94 1002.5
20260507063457 74 338 0.0 4.0 0.00 0.00 0.00 94 1002.7
20260507062947 74 45 2.0 4.0 0.00 0.00 0.00 94 1002.7
20260507061927 74 45 0.0 0.0 0.00 0.00 0.00 95 1002.9
20260507061422 73 225 0.0 0.0 0.00 0.00 0.00 95 1003.0
20260507060906 73 225 0.0 0.0 0.00 0.00 0.00 95 1003.5
20260507060357 73 225 0.0 0.0 0.00 0.00 0.00 95 1003.3
20260507055336 73 45 0.0 0.0 0.00 0.00 0.00 95 1003.6
20260507054316 73 45 0.0 0.0 0.00 0.00 0.00 94 1003.2
20260507053806 73 23 0.0 0.0 0.00 0.00 0.00 94 1003.5
20260507053256 73 23 0.0 0.0 0.00 0.00 0.00 94 1003.3
20260507052746 74 23 0.0 0.0 0.00 0.00 0.00 94 1003.5
20260507052236 74 23 0.0 0.0 0.00 0.00 0.00 93 1003.3
20260507051726 74 23 0.0 0.0 0.00 0.00 0.00 93 1003.6
20260507051215 74 23 0.0 0.0 0.00 0.00 0.00 93 1003.3
20260507050705 74 23 0.0 2.0 0.00 0.00 0.00 92 1003.7
20260507050155 74 23 0.0 2.0 0.00 0.00 0.00 92 1003.4
20260507045135 74 23 2.0 4.0 0.00 0.00 0.00 92 1003.3
20260507044115 74 23 2.0 4.0 0.00 0.00 0.00 92 1003.3
20260507043605 74 23 2.0 4.0 0.00 0.00 0.00 92 1003.2
20260507043103 74 338 1.0 2.0 0.00 0.00 0.00 92 1003.5
20260507042544 74 0 2.0 2.0 0.00 0.00 0.00 92 1003.2
20260507041534 74 23 1.0 2.0 0.00 0.00 0.00 92 1003.5
20260507041013 74 338 1.0 4.0 0.00 0.00 0.00 92 1003.5
20260507035953 74 338 2.0 4.0 0.00 0.00 0.00 91 1003.5
20260507035444 74 0 2.0 4.0 0.00 0.00 0.00 91 1003.7
20260507034424 74 23 2.0 6.0 0.00 0.00 0.00 90 1003.8
20260507033913 74 68 2.0 6.0 0.00 0.00 0.00 90 1003.8
20260507033403 75 68 2.0 6.0 0.00 0.00 0.00 90 1003.7
20260507032853 75 45 3.0 6.0 0.00 0.00 0.00 89 1003.7
20260507032343 75 23 4.0 6.0 0.00 0.00 0.00 89 1003.5
20260507031832 75 0 2.0 7.0 0.00 0.00 0.00 89 1003.5
20260507031322 75 23 4.0 8.0 0.00 0.00 0.00 89 1003.6
20260507030812 75 68 4.0 8.0 0.00 0.00 0.00 88 1003.5
20260507025243 76 45 6.0 8.0 0.00 0.00 0.00 87 1004.0
20260507024732 76 23 3.0 8.0 0.00 0.00 0.00 87 1003.8
20260507024222 76 68 4.0 8.0 0.00 0.00 0.00 86 1004.1
20260507023712 76 45 4.0 8.0 0.00 0.00 0.00 86 1004.0
20260507023201 76 45 4.0 8.0 0.00 0.00 0.00 85 1004.0
20260507022142 77 45 7.0 9.0 0.00 0.00 0.00 84 1003.8
20260507021632 77 45 5.0 11.0 0.00 0.00 0.00 83 1003.8
20260507020612 78 68 6.0 11.0 0.00 0.00 0.00 81 1003.8
20260507015551 78 23 7.0 13.0 0.00 0.00 0.00 80 1003.8
20260507015042 78 45 6.0 15.0 0.00 0.00 0.00 80 1003.7
20260507014531 78 23 6.0 15.0 0.00 0.00 0.00 80 1003.6
20260507014022 78 68 8.0 16.0 0.00 0.00 0.00 79 1003.8
20260507012450 79 90 8.0 11.0 0.00 0.00 0.00 78 1003.7
20260507011940 79 45 6.0 15.0 0.00 0.00 0.00 78 1003.7
20260507011430 79 23 6.0 15.0 0.00 0.00 0.00 77 1003.7
20260507010921 79 45 6.0 18.0 0.00 0.00 0.00 77 1003.7
20260507010410 80 23 10.0 18.0 0.00 0.00 0.00 76 1003.7
20260507005900 80 23 9.0 16.0 0.00 0.00 0.00 76 1003.7
20260507005350 80 45 8.0 15.0 0.00 0.00 0.00 76 1003.7
20260507004330 80 23 11.0 20.0 0.00 0.00 0.00 76 1003.7
20260507003819 80 45 9.0 20.0 0.00 0.00 0.00 76 1003.7
20260507003309 80 23 11.0 17.0 0.00 0.00 0.00 75 1003.7
20260507002759 80 68 12.0 17.0 0.00 0.00 0.00 75 1003.7
20260506235658 80 23 10.0 20.0 0.00 0.00 0.00 75 1003.4
20260506235148 80 0 12.0 20.0 0.00 0.00 0.00 75 1003.6
20260506234639 79 68 9.0 21.0 0.00 0.00 0.00 76 1003.3
20260506234128 80 45 11.0 21.0 0.00 0.00 0.00 75 1003.7
20260506233620 79 45 11.0 17.0 0.00 0.00 0.00 76 1003.6
20260506232558 80 45 8.0 18.0 0.00 0.00 0.00 76 1004.2
20260506231537 79 23 10.0 15.0 0.00 0.00 0.00 77 1004.5
20260506231027 79 0 8.0 11.0 0.00 0.00 0.00 77 1004.5
20260506230517 80 23 7.0 13.0 0.00 0.00 0.00 77 1004.6
20260506230013 80 45 7.0 13.0 0.00 0.00 0.00 77 1004.7
20260506225458 80 45 9.0 11.0 0.00 0.00 0.00 76 1004.5
20260506224947 80 23 7.0 11.0 0.00 0.00 0.00 77 1004.5
20260506224437 80 45 4.0 11.0 0.00 0.00 0.00 77 1004.6
20260506223927 80 45 5.0 11.0 0.00 0.00 0.00 76 1004.7
20260506223416 80 45 5.0 11.0 0.00 0.00 0.00 75 1004.7
20260506222907 80 45 4.0 7.0 0.00 0.00 0.00 76 1004.7
20260506221847 80 23 4.0 8.0 0.00 0.00 0.00 75 1005.0
20260506221336 81 45 4.0 8.0 0.00 0.00 0.00 74 1004.8
20260506220826 81 23 5.0 9.0 0.00 0.00 0.00 74 1004.9
20260506215806 81 68 7.0 11.0 0.00 0.00 0.00 73 1004.6
20260506215256 81 23 4.0 11.0 0.00 0.00 0.00 73 1004.6
20260506214747 81 68 5.0 9.0 0.00 0.00 0.00 73 1004.6
20260506214236 82 45 5.0 9.0 0.00 0.00 0.00 72 1004.6
20260506213726 82 45 5.0 9.0 0.00 0.00 0.00 72 1004.6
20260506213217 82 45 5.0 11.0 0.00 0.00 0.00 71 1004.7
20260506212705 82 45 4.0 11.0 0.00 0.00 0.00 71 1004.6
20260506212155 83 23 7.0 16.0 0.00 0.00 0.00 70 1004.8
20260506211645 83 23 8.0 16.0 0.00 0.00 0.00 69 1004.7
20260506211135 83 68 8.0 14.0 0.00 0.00 0.00 69 1004.7
20260506210114 83 23 8.0 13.0 0.00 0.00 0.00 69 1004.8
20260506205604 83 45 7.0 11.0 0.00 0.00 0.00 69 1004.9
20260506205054 83 23 6.0 13.0 0.00 0.00 0.00 69 1005.0
20260506204544 84 45 6.0 13.0 0.00 0.00 0.00 68 1005.1
20260506203525 85 23 6.0 15.0 0.00 0.00 0.00 66 1005.1
20260506203014 85 0 9.0 17.0 0.00 0.00 0.00 65 1004.8
20260506201444 86 23 10.0 16.0 0.00 0.00 0.00 64 1004.5
20260506200934 87 68 6.0 13.0 0.00 0.00 0.00 62 1004.6
20260506200424 87 23 7.0 15.0 0.00 0.00 0.00 62 1004.6
20260506195913 87 68 7.0 15.0 0.00 0.00 0.00 62 1004.2
20260506195403 87 68 9.0 17.0 0.00 0.00 0.00 62 1004.6
20260506194852 87 45 10.0 20.0 0.00 0.00 0.00 61 1004.3
20260506193323 87 45 8.0 17.0 0.00 0.00 0.00 62 1004.6
20260506192813 88 338 8.0 17.0 0.00 0.00 0.00 62 1004.6
20260506192305 88 68 7.0 20.0 0.00 0.00 0.00 62 1004.8
20260506191752 87 23 9.0 20.0 0.00 0.00 0.00 63 1004.7
20260506191242 88 270 11.0 18.0 0.00 0.00 0.00 61 1004.9
20260506190732 88 23 8.0 17.0 0.00 0.00 0.00 62 1004.8
20260506190222 88 0 9.0 17.0 0.00 0.00 0.00 63 1005.2
20260506185712 87 0 9.0 22.0 0.00 0.00 0.00 63 1005.1
20260506185202 88 23 11.0 22.0 0.00 0.00 0.00 62 1005.1
20260506184651 88 45 11.0 21.0 0.00 0.00 0.00 62 1005.0
20260506184141 88 338 8.0 18.0 0.00 0.00 0.00 63 1004.9
20260506183631 88 45 11.0 18.0 0.00 0.00 0.00 62 1005.1
20260506183121 88 23 10.0 18.0 0.00 0.00 0.00 63 1005.3
20260506182611 88 0 9.0 18.0 0.00 0.00 0.00 63 1005.5
20260506182101 88 23 9.0 18.0 0.00 0.00 0.00 62 1005.4
20260506181551 89 45 10.0 17.0 0.00 0.00 0.00 62 1005.7
20260506181042 89 0 8.0 22.0 0.00 0.00 0.00 62 1005.9
20260506180530 87 23 11.0 22.0 0.00 0.00 0.00 64 1006.0
20260506180020 88 0 11.0 21.0 0.00 0.00 0.00 63 1005.9
20260506175510 88 0 11.0 17.0 0.00 0.00 0.00 63 1006.1
20260506175000 88 0 9.0 18.0 0.00 0.00 0.00 62 1006.3
20260506173940 88 0 15.0 23.0 0.00 0.00 0.00 63 1006.3
20260506173430 88 338 15.0 22.0 0.00 0.00 0.00 63 1006.2
20260506172919 87 0 11.0 20.0 0.00 0.00 0.00 63 1006.4
20260506171859 87 45 11.0 20.0 0.00 0.00 0.00 64 1006.6
20260506171349 87 45 10.0 18.0 0.00 0.00 0.00 64 1006.8
20260506170839 87 0 10.0 18.0 0.00 0.00 0.00 64 1006.7
20260506170329 85 23 12.0 18.0 0.00 0.00 0.00 66 1006.8
20260506165819 86 45 8.0 18.0 0.00 0.00 0.00 66 1006.9
20260506163738 85 338 9.0 21.0 0.00 0.00 0.00 66 1007.1
20260506163228 85 45 12.0 22.0 0.00 0.00 0.00 67 1007.3
20260506162209 84 23 14.0 22.0 0.00 0.00 0.00 67 1007.7
20260506161658 85 45 14.0 22.0 0.00 0.00 0.00 65 1007.5
20260506161148 86 0 11.0 24.0 0.00 0.00 0.00 65 1007.6
20260506160638 85 23 17.0 24.0 0.00 0.00 0.00 67 1007.4
20260506160128 85 23 14.0 22.0 0.00 0.00 0.00 67 1007.7
20260506155618 85 68 11.0 22.0 0.00 0.00 0.00 66 1007.5
20260506155107 85 68 14.0 22.0 0.00 0.00 0.00 66 1008.1
20260506153537 85 45 11.0 21.0 0.00 0.00 0.00 66 1008.3
20260506153027 85 45 9.0 24.0 0.00 0.00 0.00 66 1008.5
20260506152517 86 23 9.0 24.0 0.00 0.00 0.00 65 1008.5
20260506152007 86 338 8.0 21.0 0.00 0.00 0.00 66 1008.6
20260506151457 85 0 11.0 21.0 0.00 0.00 0.00 67 1008.6
20260506150947 85 45 15.0 23.0 0.00 0.00 0.00 67 1008.6
20260506150437 85 45 11.0 23.0 0.00 0.00 0.00 67 1008.6
20260506145927 85 68 9.0 21.0 0.00 0.00 0.00 67 1009.0
20260506145416 84 45 10.0 21.0 0.00 0.00 0.00 67 1008.9
20260506144906 83 45 12.0 20.0 0.00 0.00 0.00 70 1009.0
20260506143336 83 0 8.0 20.0 0.00 0.00 0.00 72 1009.3
20260506142827 83 90 8.0 18.0 0.00 0.00 0.00 72 1009.3
20260506142316 82 45 12.0 20.0 0.00 0.00 0.00 73 1009.4
20260506141806 82 0 11.0 20.0 0.00 0.00 0.00 73 1009.4
20260506141255 82 23 11.0 21.0 0.00 0.00 0.00 74 1009.8
20260506140746 82 45 11.0 21.0 0.00 0.00 0.00 75 1009.8
20260506140236 81 45 15.0 21.0 0.00 0.00 0.00 74 1009.9
20260506135725 81 68 9.0 21.0 0.00 0.00 0.00 75 1010.0
20260506135215 81 45 9.0 17.0 0.00 0.00 0.00 76 1009.9